Location: Newark
(65.8500°N, 88.0667°E)
Time: 02:03:20
(UTC+00:00)

Envisat - Visible Passes

Search period start: 26 February 2020 00:00
Search period end: 07 March 2020 00:00
Orbit: 764 x 766 km, 98.1° (Epoch: 25 February)

Date Brightness Start Highest point End Pass type
(mag) Time Alt. Az. Time Alt. Az. Time Alt. Az.
26 Feb 5.3 12:47:02 10° SSW 12:51:25 28° W 12:55:50 10° NNW visible
26 Feb 6.3 23:03:16 10° NE 23:06:11 15° ENE 23:09:05 10° ESE visible
27 Feb 4.5 12:09:25 10° S 12:14:17 43° W 12:19:10 10° NNW visible
27 Feb 6.4 13:52:12 10° WSW 13:54:41 14° WNW 13:57:12 10° NW visible
28 Feb 5.2 00:04:50 10° NNE 00:09:23 31° E 00:13:54 10° SSE visible
28 Feb 5.9 13:13:26 10° SW 13:17:15 21° W 13:21:06 10° NW visible
28 Feb 6.0 23:28:19 10° NE 23:32:07 20° E 23:35:53 10° SE visible
29 Feb 5.1 12:35:27 10° SSW 12:40:00 32° W 12:44:35 10° NNW visible
29 Feb 6.5 22:52:16 10° NE 22:54:40 13° ENE 22:57:03 10° ESE visible
01 Mar 6.3 13:40:11 10° WSW 13:43:10 15° WNW 13:46:11 10° NW visible
01 Mar 5.5 23:53:35 10° NNE 23:57:57 28° E 00:02:17 10° SSE visible
02 Mar 5.7 13:01:43 10° SW 13:05:48 24° W 13:09:55 10° NNW visible
02 Mar 6.2 23:17:10 10° NE 23:20:38 18° E 23:24:05 10° ESE visible
03 Mar 4.9 12:23:53 10° SSW 12:28:35 36° W 12:33:18 10° NNW visible
03 Mar 6.6 14:07:41 10° W 14:09:10 11° WNW 14:10:40 10° NW visible
03 Mar 6.6 22:41:29 10° NE 22:43:08 11° ENE 22:44:48 10° E visible
04 Mar 6.2 13:28:17 10° WSW 13:31:41 18° W 13:35:05 10° NW visible
04 Mar 5.7 23:42:21 10° NNE 23:46:31 24° E 23:50:38 10° SE visible
05 Mar 5.5 12:50:02 10° SW 12:54:21 27° W 12:58:40 10° NNW visible
05 Mar 6.3 23:06:03 10° NE 23:09:08 16° ENE 23:12:13 10° ESE visible
06 Mar 6.4 13:55:22 10° W 13:57:38 13° WNW 13:59:55 10° NW visible
